Вернуться в каталог

KUIPER-00357

АктивенСвязьLEO
NORAD 68866·PAYLOAD·🇺🇸 United States

Запущен Apr 28, 2026 с Cape Canaveral Space Force Station

Loading…

Ближайшие Пролёты (ближайшие 24 часа)

TLE

СвежийSource: CelesTrak SupGP

Эпоха: Sep 14, 2026, 19:08 UTC

1 68866C 26095C   26257.79733796  .00002951  00000+0  38637-3 0  2572
2 68866  51.9006 206.9126 0001060  48.7162 194.0456 14.79925048    17

Отслеживайте KUIPER-00357 в реальном времени с AllMySat

Download on the App Store